Time,TemperatureF,DewpointF,PressureIn,WindDirection,WindDirectionDegrees,WindSpeedMPH,WindSpeedGustMPH,Humidity,HourlyPrecipIn,Conditions,Clouds,dailyrainin,SoftwareType,DateUTC
2013-04-03 00:00:00,57.3,52.8,30.10,South,189,0.0,0.0,85,0.00,,,0.00,Wunderground v.1.15,2013-04-03 04:00:00,
2013-04-03 00:05:00,57.4,52.9,30.10,SSW,194,0.0,0.0,85,0.00,,,0.00,Wunderground v.1.15,2013-04-03 04:05:00,
2013-04-03 00:10:00,57.3,53.1,30.10,South,188,0.0,0.0,86,0.00,,,0.00,Wunderground v.1.15,2013-04-03 04:10:00,
2013-04-03 00:15:00,57.4,53.2,30.10,South,175,0.0,0.0,86,0.00,,,0.00,Wunderground v.1.15,2013-04-03 04:15:00,
2013-04-03 00:20:00,57.4,53.2,30.10,South,173,0.0,0.0,86,0.00,,,0.00,Wunderground v.1.15,2013-04-03 04:20:00,
2013-04-03 00:30:00,57.5,53.3,30.11,South,176,0.0,0.0,86,0.00,,,0.00,Wunderground v.1.15,2013-04-03 04:30:00,
2013-04-03 00:35:00,57.5,53.3,30.10,South,177,0.0,0.0,86,0.00,,,0.00,Wunderground v.1.15,2013-04-03 04:35:00,
2013-04-03 00:45:00,57.5,53.3,30.11,South,178,0.0,0.0,86,0.00,,,0.00,Wunderground v.1.15,2013-04-03 04:45:00,
2013-04-03 00:50:00,57.5,53.3,30.11,South,178,0.0,0.0,86,0.00,,,0.00,Wunderground v.1.15,2013-04-03 04:50:00,
2013-04-03 01:00:00,57.4,53.2,30.11,South,178,0.0,0.0,86,0.00,,,0.00,Wunderground v.1.15,2013-04-03 05:00:00,
2013-04-03 01:10:00,56.9,52.8,30.11,South,188,0.0,0.0,86,0.00,,,0.00,Wunderground v.1.15,2013-04-03 05:10:00,
2013-04-03 01:20:00,56.7,52.9,30.11,South,188,0.0,0.0,87,0.00,,,0.00,Wunderground v.1.15,2013-04-03 05:20:00,
2013-04-03 01:30:00,56.6,52.8,30.10,South,188,0.0,0.0,87,0.00,,,0.00,Wunderground v.1.15,2013-04-03 05:30:00,
2013-04-03 01:40:00,57.1,53.6,30.10,SSE,166,0.0,0.0,88,0.00,,,0.00,Wunderground v.1.15,2013-04-03 05:40:00,
2013-04-03 01:50:00,57.9,53.7,30.10,South,176,0.0,0.0,86,0.00,,,0.00,Wunderground v.1.15,2013-04-03 05:50:00,
2013-04-03 01:55:00,58.2,53.7,30.10,South,181,0.0,0.0,85,0.00,,,0.00,Wunderground v.1.15,2013-04-03 05:55:00,
2013-04-03 02:05:00,58.4,53.9,30.09,South,178,0.0,0.0,85,0.00,,,0.00,Wunderground v.1.15,2013-04-03 06:05:00,
2013-04-03 02:10:00,58.6,53.8,30.09,South,170,0.0,0.0,84,0.00,,,0.00,Wunderground v.1.15,2013-04-03 06:10:00,
2013-04-03 02:20:00,58.7,53.5,30.09,South,172,0.0,0.0,83,0.00,,,0.00,Wunderground v.1.15,2013-04-03 06:20:00,
2013-04-03 02:30:00,58.8,53.6,30.09,South,176,0.0,0.0,83,0.00,,,0.00,Wunderground v.1.15,2013-04-03 06:30:00,
2013-04-03 02:40:00,58.7,53.9,30.08,SSW,198,0.0,0.0,84,0.00,,,0.00,Wunderground v.1.15,2013-04-03 06:40:00,
2013-04-03 02:50:00,58.4,53.9,30.08,SSW,198,0.0,0.0,85,0.00,,,0.00,Wunderground v.1.15,2013-04-03 06:50:00,
2013-04-03 03:00:00,58.1,54.2,30.07,SSW,198,0.0,0.0,87,0.00,,,0.00,Wunderground v.1.15,2013-04-03 07:00:00,
2013-04-03 03:10:00,58.0,54.2,30.07,South,190,0.0,0.0,87,0.00,,,0.00,Wunderground v.1.15,2013-04-03 07:10:00,
2013-04-03 03:20:00,58.1,54.2,30.07,South,190,0.0,0.0,87,0.00,,,0.00,Wunderground v.1.15,2013-04-03 07:20:00,
2013-04-03 03:30:00,58.1,54.2,30.06,South,190,0.0,0.0,87,0.00,,,0.00,Wunderground v.1.15,2013-04-03 07:30:00,
2013-04-03 03:40:00,57.8,54.0,30.06,South,190,0.0,0.0,87,0.00,,,0.00,Wunderground v.1.15,2013-04-03 07:40:00,
2013-04-03 03:45:00,57.7,53.9,30.06,South,190,0.0,0.0,87,0.00,,,0.00,Wunderground v.1.15,2013-04-03 07:45:00,
2013-04-03 03:55:00,57.5,53.7,30.06,South,190,0.0,0.0,87,0.00,,,0.00,Wunderground v.1.15,2013-04-03 07:55:00,
2013-04-03 04:05:00,57.2,53.7,30.06,South,190,0.0,0.0,88,0.00,,,0.00,Wunderground v.1.15,2013-04-03 08:05:00,
2013-04-03 04:10:00,57.1,53.6,30.06,South,190,0.0,0.0,88,0.00,,,0.00,Wunderground v.1.15,2013-04-03 08:10:00,
2013-04-03 04:20:00,56.8,53.3,30.07,SW,223,0.0,0.0,88,0.00,,,0.00,Wunderground v.1.15,2013-04-03 08:20:00,
2013-04-03 04:25:00,56.7,53.2,30.07,SW,223,0.0,0.0,88,0.00,,,0.00,Wunderground v.1.15,2013-04-03 08:25:00,
2013-04-03 04:30:00,56.7,53.5,30.07,SW,223,0.0,0.0,89,0.00,,,0.00,Wunderground v.1.15,2013-04-03 08:30:00,
2013-04-03 04:40:00,56.7,53.5,30.07,SW,223,0.0,0.0,89,0.00,,,0.00,Wunderground v.1.15,2013-04-03 08:40:00,
2013-04-03 04:50:00,56.6,53.4,30.07,SW,223,0.0,0.0,89,0.00,,,0.00,Wunderground v.1.15,2013-04-03 08:50:00,
2013-04-03 05:00:00,56.5,53.3,30.07,SW,223,0.0,0.0,89,0.00,,,0.00,Wunderground v.1.15,2013-04-03 09:00:00,
2013-04-03 05:05:00,56.5,53.3,30.07,SW,223,0.0,0.0,89,0.00,,,0.00,Wunderground v.1.15,2013-04-03 09:05:00,
2013-04-03 05:15:00,56.2,53.0,30.07,SW,223,0.0,0.0,89,0.00,,,0.00,Wunderground v.1.15,2013-04-03 09:15:00,
2013-04-03 05:20:00,56.0,52.8,30.07,NW,319,0.0,0.0,89,0.00,,,0.00,Wunderground v.1.15,2013-04-03 09:20:00,
2013-04-03 05:25:00,55.9,53.0,30.07,NW,319,0.0,0.0,90,0.00,,,0.00,Wunderground v.1.15,2013-04-03 09:25:00,
2013-04-03 05:35:00,55.1,51.9,30.07,NW,321,0.0,0.0,89,0.00,,,0.00,Wunderground v.1.15,2013-04-03 09:35:00,
2013-04-03 05:45:00,54.6,51.7,30.07,NW,321,0.0,0.0,90,0.00,,,0.00,Wunderground v.1.15,2013-04-03 09:45:00,
2013-04-03 05:55:00,54.0,51.1,30.08,NW,321,0.0,0.0,90,0.00,,,0.00,Wunderground v.1.15,2013-04-03 09:55:00,
2013-04-03 06:05:00,53.7,51.1,30.08,NW,321,0.0,0.0,91,0.00,,,0.00,Wunderground v.1.15,2013-04-03 10:05:00,
2013-04-03 06:15:00,53.5,50.9,30.09,NW,321,0.0,0.0,91,0.00,,,0.00,Wunderground v.1.15,2013-04-03 10:15:00,
2013-04-03 06:25:00,53.4,51.1,30.09,North,360,0.0,0.0,92,0.00,,,0.00,Wunderground v.1.15,2013-04-03 10:25:00,
2013-04-03 06:35:00,53.1,50.8,30.09,North,355,0.0,0.0,92,0.00,,,0.00,Wunderground v.1.15,2013-04-03 10:35:00,
2013-04-03 06:45:00,52.7,50.4,30.10,North,5,0.0,0.0,92,0.00,,,0.00,Wunderground v.1.15,2013-04-03 10:45:00,
2013-04-03 06:55:00,52.2,49.9,30.11,North,5,0.0,0.0,92,0.00,,,0.00,Wunderground v.1.15,2013-04-03 10:55:00,
2013-04-03 07:05:00,51.5,49.3,30.11,NNE,19,0.0,0.0,92,0.00,,,0.00,Wunderground v.1.15,2013-04-03 11:05:00,
2013-04-03 07:15:00,51.1,48.9,30.11,NNE,15,0.0,4.0,92,0.00,,,0.00,Wunderground v.1.15,2013-04-03 11:15:00,
2013-04-03 07:25:00,50.8,48.6,30.12,NNW,344,0.0,1.0,92,0.00,,,0.00,Wunderground v.1.15,2013-04-03 11:25:00,
2013-04-03 07:35:00,50.8,48.8,30.12,North,355,0.0,0.0,93,0.00,,,0.00,Wunderground v.1.15,2013-04-03 11:35:00,
2013-04-03 07:45:00,51.2,49.2,30.13,NNE,30,0.0,0.0,93,0.00,,,0.00,Wunderground v.1.15,2013-04-03 11:45:00,
2013-04-03 07:55:00,51.6,49.4,30.14,North,9,1.0,1.0,92,0.00,,,0.00,Wunderground v.1.15,2013-04-03 11:55:00,
2013-04-03 08:05:00,51.9,49.4,30.15,NE,42,0.0,0.0,91,0.00,,,0.00,Wunderground v.1.15,2013-04-03 12:05:00,
2013-04-03 08:15:00,52.5,49.9,30.16,NE,45,1.0,5.0,91,0.00,,,0.00,Wunderground v.1.15,2013-04-03 12:15:00,
2013-04-03 08:25:00,53.0,49.8,30.16,NW,324,1.0,4.0,89,0.00,,,0.00,Wunderground v.1.15,2013-04-03 12:25:00,
2013-04-03 08:35:00,53.3,49.5,30.16,NNE,27,1.0,8.0,87,0.00,,,0.00,Wunderground v.1.15,2013-04-03 12:35:00,
2013-04-03 08:45:00,53.4,49.3,30.17,NNE,16,2.0,4.0,86,0.00,,,0.00,Wunderground v.1.15,2013-04-03 12:45:00,
2013-04-03 08:55:00,53.8,48.8,30.17,NNE,26,5.0,9.0,83,0.00,,,0.00,Wunderground v.1.15,2013-04-03 12:55:00,
2013-04-03 09:05:00,54.4,48.4,30.17,NNE,15,3.0,9.0,80,0.00,,,0.00,Wunderground v.1.15,2013-04-03 13:05:00,
2013-04-03 09:15:00,54.5,47.8,30.17,ENE,58,7.0,7.0,78,0.00,,,0.00,Wunderground v.1.15,2013-04-03 13:15:00,
2013-04-03 09:25:00,54.3,46.9,30.17,NE,44,7.0,9.0,76,0.00,,,0.00,Wunderground v.1.15,2013-04-03 13:25:00,
2013-04-03 09:35:00,54.1,45.6,30.17,ENE,63,6.0,8.0,73,0.00,,,0.00,Wunderground v.1.15,2013-04-03 13:35:00,
2013-04-03 09:45:00,53.8,43.9,30.18,North,351,9.0,9.0,69,0.00,,,0.00,Wunderground v.1.15,2013-04-03 13:45:00,
2013-04-03 09:55:00,54.5,44.2,30.18,NNE,22,4.0,7.0,68,0.00,,,0.00,Wunderground v.1.15,2013-04-03 13:55:00,
2013-04-03 10:00:00,54.6,43.5,30.18,NE,34,2.0,2.0,66,0.00,,,0.00,Wunderground v.1.15,2013-04-03 14:00:00,
2013-04-03 10:05:00,54.8,43.7,30.18,NNE,25,2.0,2.0,66,0.00,,,0.00,Wunderground v.1.15,2013-04-03 14:05:00,
2013-04-03 10:15:00,55.0,43.0,30.18,NNW,343,3.0,6.0,64,0.00,,,0.00,Wunderground v.1.15,2013-04-03 14:15:00,
2013-04-03 10:25:00,55.7,42.0,30.19,NE,34,4.0,8.0,60,0.00,,,0.00,Wunderground v.1.15,2013-04-03 14:25:00,
2013-04-03 10:30:00,55.9,41.8,30.19,East,97,6.0,6.0,59,0.00,,,0.00,Wunderground v.1.15,2013-04-03 14:30:00,
2013-04-03 10:40:00,55.8,38.9,30.19,North,5,6.0,6.0,53,0.00,,,0.00,Wunderground v.1.15,2013-04-03 14:40:00,
2013-04-03 10:45:00,55.9,40.0,30.19,ENE,74,5.0,6.0,55,0.00,,,0.00,Wunderground v.1.15,2013-04-03 14:45:00,
2013-04-03 10:55:00,56.7,40.7,30.20,East,88,3.0,6.0,55,0.00,,,0.00,Wunderground v.1.15,2013-04-03 14:55:00,
2013-04-03 11:05:00,56.6,38.2,30.20,ESE,115,3.0,3.0,50,0.00,,,0.00,Wunderground v.1.15,2013-04-03 15:05:00,
2013-04-03 11:15:00,57.0,39.0,30.20,NNE,26,2.0,6.0,51,0.00,,,0.00,Wunderground v.1.15,2013-04-03 15:15:00,
2013-04-03 11:20:00,57.1,37.0,30.20,ENE,69,4.0,4.0,47,0.00,,,0.00,Wunderground v.1.15,2013-04-03 15:20:00,
2013-04-03 11:25:00,57.1,36.5,30.20,ENE,63,3.0,4.0,46,0.00,,,0.00,Wunderground v.1.15,2013-04-03 15:25:00,
2013-04-03 11:35:00,57.3,38.8,30.21,NNE,28,3.0,4.0,50,0.00,,,0.00,Wunderground v.1.15,2013-04-03 15:35:00,
2013-04-03 11:40:00,57.2,37.1,30.21,ENE,59,2.0,2.0,47,0.00,,,0.00,Wunderground v.1.15,2013-04-03 15:40:00,
2013-04-03 11:50:00,57.2,36.0,30.21,East,84,2.0,2.0,45,0.00,,,0.00,Wunderground v.1.15,2013-04-03 15:50:00,
2013-04-03 12:00:00,56.7,36.7,30.22,East,93,5.0,9.0,47,0.00,,,0.00,Wunderground v.1.15,2013-04-03 16:00:00,
2013-04-03 12:10:00,56.0,37.1,30.21,East,82,11.0,14.0,49,0.00,,,0.00,Wunderground v.1.15,2013-04-03 16:10:00,
2013-04-03 12:15:00,55.9,36.5,30.21,East,94,11.0,14.0,48,0.00,,,0.00,Wunderground v.1.15,2013-04-03 16:15:00,
2013-04-03 12:25:00,56.1,37.2,30.21,East,85,11.0,17.0,49,0.00,,,0.00,Wunderground v.1.15,2013-04-03 16:25:00,
2013-04-03 12:35:00,56.7,39.3,30.21,NNW,346,6.0,11.0,52,0.00,,,0.00,Wunderground v.1.15,2013-04-03 16:35:00,
2013-04-03 12:45:00,56.6,39.2,30.20,NW,321,1.0,1.0,52,0.00,,,0.00,Wunderground v.1.15,2013-04-03 16:45:00,
2013-04-03 12:55:00,57.3,39.3,30.20,NNE,18,1.0,1.0,51,0.00,,,0.00,Wunderground v.1.15,2013-04-03 16:55:00,
2013-04-03 13:05:00,57.2,38.2,30.19,NW,306,1.0,3.0,49,0.00,,,0.00,Wunderground v.1.15,2013-04-03 17:05:00,
2013-04-03 13:10:00,57.1,39.1,30.19,ENE,61,1.0,1.0,51,0.00,,,0.00,Wunderground v.1.15,2013-04-03 17:10:00,
2013-04-03 13:20:00,57.2,40.2,30.19,North,9,1.0,1.0,53,0.00,,,0.00,Wunderground v.1.15,2013-04-03 17:20:00,
2013-04-03 13:25:00,57.4,38.4,30.19,North,355,1.0,2.0,49,0.00,,,0.00,Wunderground v.1.15,2013-04-03 17:25:00,
2013-04-03 13:35:00,57.9,39.4,30.19,ENE,66,1.0,1.0,50,0.00,,,0.00,Wunderground v.1.15,2013-04-03 17:35:00,
2013-04-03 13:45:00,57.4,39.4,30.19,NW,313,1.0,1.0,51,0.00,,,0.00,Wunderground v.1.15,2013-04-03 17:45:00,
2013-04-03 13:55:00,57.3,39.3,30.19,NNW,338,1.0,1.0,51,0.00,,,0.00,Wunderground v.1.15,2013-04-03 17:55:00,
2013-04-03 14:00:00,57.5,40.5,30.19,NW,317,1.0,2.0,53,0.00,,,0.00,Wunderground v.1.15,2013-04-03 18:00:00,
2013-04-03 14:10:00,57.6,40.1,30.18,NNW,329,1.0,1.0,52,0.00,,,0.00,Wunderground v.1.15,2013-04-03 18:10:00,
2013-04-03 14:20:00,57.7,40.7,30.18,NNW,331,1.0,1.0,53,0.00,,,0.00,Wunderground v.1.15,2013-04-03 18:20:00,
2013-04-03 14:30:00,57.6,42.0,30.18,NW,309,1.0,2.0,56,0.00,,,0.00,Wunderground v.1.15,2013-04-03 18:30:00,
2013-04-03 14:35:00,57.5,41.0,30.18,North,350,1.0,2.0,54,0.00,,,0.00,Wunderground v.1.15,2013-04-03 18:35:00,
2013-04-03 14:40:00,57.7,41.6,30.18,NNW,327,1.0,3.0,55,0.00,,,0.00,Wunderground v.1.15,2013-04-03 18:40:00,
2013-04-03 14:50:00,57.8,42.2,30.18,South,172,1.0,1.0,56,0.00,,,0.00,Wunderground v.1.15,2013-04-03 18:50:00,
2013-04-03 15:00:00,57.8,43.6,30.18,NNE,20,1.0,2.0,59,0.00,,,0.00,Wunderground v.1.15,2013-04-03 19:00:00,
2013-04-03 15:10:00,57.7,42.6,30.18,NW,323,1.0,1.0,57,0.00,,,0.00,Wunderground v.1.15,2013-04-03 19:10:00,
2013-04-03 15:20:00,57.5,43.3,30.17,NNW,331,0.0,1.0,59,0.00,,,0.00,Wunderground v.1.15,2013-04-03 19:20:00,
2013-04-03 15:30:00,57.6,43.4,30.17,North,349,0.0,0.0,59,0.00,,,0.00,Wunderground v.1.15,2013-04-03 19:30:00,
2013-04-03 15:40:00,57.4,41.8,30.17,NW,315,0.0,0.0,56,0.00,,,0.00,Wunderground v.1.15,2013-04-03 19:40:00,
2013-04-03 15:45:00,57.4,43.2,30.17,North,9,0.0,0.0,59,0.00,,,0.00,Wunderground v.1.15,2013-04-03 19:45:00,
2013-04-03 15:55:00,57.5,44.1,30.17,North,5,0.0,0.0,61,0.00,,,0.00,Wunderground v.1.15,2013-04-03 19:55:00,
2013-04-03 16:05:00,57.2,43.4,30.17,ENE,57,0.0,1.0,60,0.00,,,0.00,Wunderground v.1.15,2013-04-03 20:05:00,
2013-04-03 16:10:00,57.4,44.5,30.17,NNE,20,0.0,0.0,62,0.00,,,0.00,Wunderground v.1.15,2013-04-03 20:10:00,
2013-04-03 16:20:00,57.5,44.1,30.18,North,360,0.0,0.0,61,0.00,,,0.00,Wunderground v.1.15,2013-04-03 20:20:00,
2013-04-03 16:30:00,57.4,44.5,30.18,North,5,0.0,0.0,62,0.00,,,0.00,Wunderground v.1.15,2013-04-03 20:30:00,
2013-04-03 16:40:00,57.2,45.9,30.18,North,5,0.0,0.0,66,0.00,,,0.00,Wunderground v.1.15,2013-04-03 20:40:00,
2013-04-03 16:50:00,57.3,46.0,30.18,North,360,0.0,0.0,66,0.00,,,0.00,Wunderground v.1.15,2013-04-03 20:50:00,
2013-04-03 16:55:00,57.2,46.3,30.18,NNW,347,0.0,0.0,67,0.00,,,0.00,Wunderground v.1.15,2013-04-03 20:55:00,
2013-04-03 17:05:00,56.4,44.4,30.19,WNW,302,0.0,0.0,64,0.00,,,0.00,Wunderground v.1.15,2013-04-03 21:05:00,
2013-04-03 17:15:00,56.1,45.7,30.19,WNW,295,0.0,0.0,68,0.00,,,0.00,Wunderground v.1.15,2013-04-03 21:15:00,
2013-04-03 17:25:00,56.1,46.8,30.19,NNW,334,0.0,1.0,71,0.00,,,0.00,Wunderground v.1.15,2013-04-03 21:25:00,
2013-04-03 17:35:00,55.8,46.9,30.18,NNW,344,0.0,0.0,72,0.00,,,0.00,Wunderground v.1.15,2013-04-03 21:35:00,
2013-04-03 17:45:00,55.6,46.3,30.18,NW,317,0.0,0.0,71,0.00,,,0.00,Wunderground v.1.15,2013-04-03 21:45:00,
2013-04-03 17:55:00,55.4,46.9,30.18,ENE,67,0.0,0.0,73,0.00,,,0.00,Wunderground v.1.15,2013-04-03 21:55:00,
2013-04-03 18:05:00,55.3,47.5,30.18,WNW,291,0.0,2.0,75,0.00,,,0.00,Wunderground v.1.15,2013-04-03 22:05:00,
2013-04-03 18:15:00,55.0,46.9,30.19,North,9,0.0,0.0,74,0.00,,,0.00,Wunderground v.1.15,2013-04-03 22:15:00,
2013-04-03 18:20:00,54.9,46.4,30.18,ENE,59,0.0,0.0,73,0.00,,,0.00,Wunderground v.1.15,2013-04-03 22:20:00,
2013-04-03 18:30:00,54.8,46.7,30.19,NNE,19,0.0,0.0,74,0.00,,,0.00,Wunderground v.1.15,2013-04-03 22:30:00,
2013-04-03 18:40:00,54.8,46.7,30.19,NE,50,0.0,0.0,74,0.00,,,0.00,Wunderground v.1.15,2013-04-03 22:40:00,
2013-04-03 18:45:00,54.8,46.7,30.19,ENE,69,0.0,0.0,74,0.00,,,0.00,Wunderground v.1.15,2013-04-03 22:45:00,
2013-04-03 18:55:00,54.8,47.0,30.20,SSE,165,0.0,0.0,75,0.00,,,0.00,Wunderground v.1.15,2013-04-03 22:55:00,
2013-04-03 19:05:00,54.7,46.9,30.20,East,80,0.0,0.0,75,0.00,,,0.00,Wunderground v.1.15,2013-04-03 23:05:00,
2013-04-03 19:15:00,54.6,46.5,30.19,ENE,64,0.0,0.0,74,0.00,,,0.00,Wunderground v.1.15,2013-04-03 23:15:00,
2013-04-03 19:25:00,54.4,46.3,30.20,East,100,0.0,0.0,74,0.00,,,0.00,Wunderground v.1.15,2013-04-03 23:25:00,
2013-04-03 19:30:00,54.4,46.6,30.20,East,88,0.0,0.0,75,0.00,,,0.00,Wunderground v.1.15,2013-04-03 23:30:00,
2013-04-03 19:35:00,54.3,46.2,30.20,East,86,0.0,0.0,74,0.00,,,0.00,Wunderground v.1.15,2013-04-03 23:35:00,
2013-04-03 19:40:00,54.2,45.7,30.20,ENE,61,0.0,0.0,73,0.00,,,0.00,Wunderground v.1.15,2013-04-03 23:40:00,
2013-04-03 19:50:00,54.1,46.0,30.20,East,99,0.0,0.0,74,0.00,,,0.00,Wunderground v.1.15,2013-04-03 23:50:00,
2013-04-03 19:55:00,54.2,46.1,30.21,ENE,78,0.0,0.0,74,0.00,,,0.00,Wunderground v.1.15,2013-04-03 23:55:00,
2013-04-03 20:05:00,54.2,45.7,30.21,East,87,0.0,0.0,73,0.00,,,0.00,Wunderground v.1.15,2013-04-04 00:05:00,
2013-04-03 20:10:00,54.2,45.7,30.21,NNE,28,0.0,0.0,73,0.00,,,0.00,Wunderground v.1.15,2013-04-04 00:10:00,
2013-04-03 20:20:00,54.2,45.7,30.22,East,86,0.0,0.0,73,0.00,,,0.00,Wunderground v.1.15,2013-04-04 00:20:00,
2013-04-03 20:30:00,54.2,46.1,30.22,ENE,76,0.0,0.0,74,0.00,,,0.00,Wunderground v.1.15,2013-04-04 00:30:00,
2013-04-03 20:35:00,54.1,45.6,30.22,East,91,0.0,0.0,73,0.00,,,0.00,Wunderground v.1.15,2013-04-04 00:35:00,
2013-04-03 20:45:00,54.1,45.3,30.22,ENE,65,0.0,0.0,72,0.00,,,0.00,Wunderground v.1.15,2013-04-04 00:45:00,
2013-04-03 20:50:00,54.2,45.4,30.22,ENE,75,0.0,0.0,72,0.00,,,0.00,Wunderground v.1.15,2013-04-04 00:50:00,
2013-04-03 21:00:00,54.2,45.4,30.22,East,82,0.0,0.0,72,0.00,,,0.00,Wunderground v.1.15,2013-04-04 01:00:00,
2013-04-03 21:05:00,54.3,45.8,30.22,ENE,58,0.0,0.0,73,0.00,,,0.00,Wunderground v.1.15,2013-04-04 01:05:00,
2013-04-03 21:15:00,54.2,45.4,30.23,East,95,0.0,0.0,72,0.00,,,0.00,Wunderground v.1.15,2013-04-04 01:15:00,
2013-04-03 21:25:00,54.3,45.5,30.23,East,99,0.0,0.0,72,0.00,,,0.00,Wunderground v.1.15,2013-04-04 01:25:00,
2013-04-03 21:30:00,54.3,45.8,30.23,NNE,28,0.0,0.0,73,0.00,,,0.00,Wunderground v.1.15,2013-04-04 01:30:00,
2013-04-03 21:40:00,54.4,45.9,30.23,ESE,103,0.0,0.0,73,0.00,,,0.00,Wunderground v.1.15,2013-04-04 01:40:00,
2013-04-03 21:50:00,54.3,45.8,30.23,North,350,0.0,0.0,73,0.00,,,0.00,Wunderground v.1.15,2013-04-04 01:50:00,
2013-04-03 22:00:00,54.3,45.5,30.23,ENE,78,0.0,0.0,72,0.00,,,0.00,Wunderground v.1.15,2013-04-04 02:00:00,
2013-04-03 22:10:00,54.3,45.1,30.23,NNW,343,0.0,0.0,71,0.00,,,0.00,Wunderground v.1.15,2013-04-04 02:10:00,
2013-04-03 22:20:00,54.4,45.6,30.24,NW,312,0.0,0.0,72,0.00,,,0.00,Wunderground v.1.15,2013-04-04 02:20:00,
2013-04-03 22:30:00,54.4,45.6,30.23,East,101,0.0,0.0,72,0.00,,,0.00,Wunderground v.1.15,2013-04-04 02:30:00,
2013-04-03 22:35:00,54.5,46.0,30.23,ENE,63,0.0,0.0,73,0.00,,,0.00,Wunderground v.1.15,2013-04-04 02:35:00,
2013-04-03 22:40:00,54.5,46.0,30.24,ENE,78,0.0,0.0,73,0.00,,,0.00,Wunderground v.1.15,2013-04-04 02:40:00,
2013-04-03 22:50:00,54.4,45.9,30.24,NE,42,0.0,0.0,73,0.00,,,0.00,Wunderground v.1.15,2013-04-04 02:50:00,
2013-04-03 23:00:00,54.4,45.9,30.24,NE,35,0.0,0.0,73,0.00,,,0.00,Wunderground v.1.15,2013-04-04 03:00:00,
2013-04-03 23:05:00,54.4,45.6,30.24,NE,48,0.0,0.0,72,0.00,,,0.00,Wunderground v.1.15,2013-04-04 03:05:00,
2013-04-03 23:15:00,54.5,45.7,30.24,North,9,0.0,0.0,72,0.00,,,0.00,Wunderground v.1.15,2013-04-04 03:15:00,
2013-04-03 23:20:00,54.6,46.1,30.24,East,84,0.0,0.0,73,0.00,,,0.00,Wunderground v.1.15,2013-04-04 03:20:00,
2013-04-03 23:30:00,54.5,46.0,30.24,ENE,67,0.0,0.0,73,0.00,,,0.00,Wunderground v.1.15,2013-04-04 03:30:00,
2013-04-03 23:40:00,54.6,46.5,30.24,ENE,70,0.0,0.0,74,0.00,,,0.00,Wunderground v.1.15,2013-04-04 03:40:00,
2013-04-03 23:45:00,54.6,46.5,30.24,East,82,0.0,0.0,74,0.00,,,0.00,Wunderground v.1.15,2013-04-04 03:45:00,
2013-04-03 23:55:00,54.6,46.5,30.24,North,10,0.0,0.0,74,0.00,,,0.00,Wunderground v.1.15,2013-04-04 03:55:00,